Location: Baia Mare
(47.6567°N, 23.5850°E)
Time: 09:16:07

ISS - Pass Details

Date: 17 March 2018
Orbit: 403 x 406 km, 51.6° (Epoch: 23 March)

Event Time Altitude Azimuth Distance (km) Brightness Sun altitude
Exits shadow 05:22:32 24° 272° (W) 895 -2.7 -13.0°
Maximum altitude 05:24:07 43° 213° (SSW) 577 -3.4 -12.7°
Drops below altitude 10° 05:27:15 10° 140° (SE) 1,457 -0.6 -12.2°
Sets 05:29:22 0° 134° (SE) 2,313 0.5 -11.9°
